Location: Ambatotampy
(18.8181°S, 47.6186°E)
Time: 23:58:08
(UTC+00:00)

Cosmos 1726 - Pass Details

Date: 21 January 2021
Orbit: 480 x 498 km, 82.5° (Epoch: 24 February)

Event Time Altitude Azimuth Distance (km) Brightness Sun altitude
Rises 01:00:08 0° 176° (S) 2,570 6.2 -19.7°
Reaches altitude 10° 01:02:18 10° 170° (S) 1,685 5.3 -19.3°
Maximum altitude 01:05:51 45° 96° (E) 677 3.2 -18.6°
Drops below altitude 10° 01:09:23 10° 22° (NNE) 1,676 4.7 -17.8°
Sets 01:11:32 0° 16° (NNE) 2,553 5.6 -17.4°
